www.pogodaiklimat.ru

Погода и климат >> Архив погоды >> Россия >> Челябинская область >> Миасс


АРХИВ ПОГОДЫ в Миассе

Время (UTC), дата Ветер
(напр.,м/с)
 
Видим.   Явления Облачность Т
(С)
Тd
(С)
f
(%)
Тe
(С)
Тes
(С)
Комфортность P
(гПа)
Po
(гПа)
Тmin
(С)
Tmax
(С)
R
(мм)
R24
(мм)
S
(см)
06 15.04 С 2 20 км ясно +0.5 -14.9 30 -2 +7 холодно 1022.2 980.1
09 15.04 ЮВ 1 50 км ясно +5.1 -15.4 21 +5 +18 опасность
простуды
1019.3 978.0
12 15.04 СЗ 3 50 км ясно +7.4 -16.6 16 +6 +9 по сезону 1017.3 976.4
15 15.04 З 2 20 км ясно +3.8 -15.9 22 +2 +2 прохладно 1016.7 975.4 +7.4
18 15.04 З 2 10 км 8/0
[Ac trans]
+1.8 -13.1 32 -0 -0 по сезону 1016.3 974.6
21 15.04 СЗ 3 10 км 3/0
[Ac trans]
+2.1 -12.7 32 -1 -1 по сезону 1015.3 973.7
00 16.04 ЮЗ 2 10 км 6/3 600 м
[Sc Ac trans]
+0.2 -9.5 48 -3 -3 по сезону 1014.2 972.4
03 16.04 З 3 20 км 10/0
[Ac As]
+1.8 -7.4 50 -2 -1 прохладно 1012.4 970.9 0.0
06 16.04 СЗ 5-10
{10}
10 км слаб. ливневой снег 9/5 600 м
[Cb cap Ac trans Cc]
+2.7 -4.8 58 -2 -1 холодно 1010.9 969.7
09 16.04 СЗ 5
{11}
10 км слаб. ливневой снег 10/8 600 м
[Cb cap Ac As]
+3.8 -4.8 53 -1 -0 очень
холодно
1010.0 968.9
12 16.04 З 5-10
{12}
10 км слаб. ливневой дождь со снегом 9/8 600 м
[Cb cap Ac trans]
+3.3 -3.2 62 -1 -1 очень
холодно
1009.3 968.3
15 16.04 З 2
{11}
10 км в посл. час ливневой снег 8/4 600 м
[Cb cap Ac trans Cc]
+0.9 -2.1 80 -2 -2 холодно 1008.8 967.4 +4.3 0.3
18 16.04 С 4 2000 м слаб. ливневой снег [диам. отлож. мокр. снега 2 мм] 10/8 600 м
[Cb cap As op]
-1.2 -2.8 89 -7 -7 очень
холодно
1010.5 968.7
21 16.04 С 4 10 км {ливн. осадки} 6/4 600 м
[Cb cap Cc]
-3.5 -8.4 69 -9 -9 очень
холодно
1013.8 971.4
00 17.04 С 6-11
{14}
10 км слаб. ливневой снег {метель} 10/6 600 м
[Cb cap As op]
-6.8 -10.7 74 -15 -15 очень
холодно
1017.9 974.9
03 17.04 С 4
{11}
20 км {ливн. осадки, метель} 6/3 600 м
[Cu Sc Ac trans Cc]
-7.9 -15.5 54 -14 -14 очень
холодно
1021.3 978.0 -8.5 1 4
06 17.04 С 5-11
{12}
50 км {ливн. осадки, метель} 8/8 600 м
[Cu Sc Ac trans]
-6.3 -15.6 48 -13 -12 очень
холодно
1022.8 979.7
09 17.04 СЗ 5-11
{12}
50 км 8/8 600 м
[Cu Sc]
-3.9 -14.3 44 -10 -9 очень
холодно
1024.2 981.4
12 17.04 С 5
{13}
50 км 9/9 600 м
[Cu Sc]
-2.3 -14.3 39 -8 -8 очень
холодно
1026.1 983.4
15 17.04 С 3
{12}
20 км 1/1 600 м
[Sc]
-3.3 -16.2 36 -8 -8 очень
холодно
1027.3 984.4 -2.0
18 17.04 СЗ 2 10 км ясно -7.1 -14.3 56 -11 -11 очень
холодно
1029.9 986.3
21 17.04 Ю 1 10 км ясно -10.2 -12.9 81 -12 -12 очень
холодно
1031.9 987.8
00 18.04 штиль 0 10 км ясно -11.6 -14.2 81 -12 -12 очень
холодно
1032.7 988.3
03 18.04 Ю 1 10 км ясно -6.5 -13.5 58 -8 -6 очень
холодно
1032.3 988.7 -11.8 1
06 18.04 СЗ 3 50 км ясно -0.2 -16.8 27 -4 +4 очень
холодно
1031.0 988.5
09 18.04 С 3 50 км ясно +3.7 -17.2 20 +1 +11 опасность
простуды
1029.7 987.8
12 18.04 С 3 50 км ясно +4.8 -19.4 15 +3 +6 холодно 1028.1 986.4
15 18.04 СЗ 1 20 км ясно +1.8 -17.6 22 +1 +1 холодно 1027.9 985.8 +5.3
18 18.04 штиль 0 10 км ясно -5.7 -11.5 64 -6 -6 очень
холодно
1029.6 986.3
21 18.04 штиль 0 10 км ясно -8.1 -11.4 77 -9 -9 очень
холодно
1029.7 986.0
00 19.04 штиль 0 10 км ясно -9.7 -12.3 81 -10 -10 очень
холодно
1029.0 985.0
03 19.04 ЮЗ 1 20 км ясно -5.2 -11.6 61 -7 -4 очень
холодно
1027.3 984.2 -9.8
06 19.04 СВ 3 20 км 3/0
[Ci fib]
+4.2 -17.4 19 +2 +9 прохладно 1024.4 982.8
09 19.04 С 2 50 км 4/0
[Ci fib]
+7.0 -16.7 17 +6 +16 опасность
простуды
1022.1 981.0
12 19.04 СВ 3 50 км 4/0
[Ci fib]
+8.1 -15.6 17 +6 +10 прохладно 1020.6 979.7
15 19.04 С 1 20 км 3/0
[Ci fib]
+4.5 -14.7 23 +4 +4 по сезону 1021.1 979.6 +8.3
18 19.04 штиль 0 10 км ясно -3.5 -10.2 60 -4 -4 холодно 1022.8 980.1
21 19.04 Ю 1 10 км ясно -5.1 -10.0 68 -7 -7 очень
холодно
1023.0 980.0
00 20.04 Ю 1 10 км ясно -6.5 -10.9 71 -9 -9 очень
холодно
1023.5 980.3
03 20.04 Ю 1 20 км 3/0
[Ci fib]
-1.9 -9.5 56 -3 -1 холодно 1023.2 980.7 -6.6
06 20.04 СЗ 4 20 км 3/0
[Ac trans Ci fib]
+6.8 -10.0 29 +4 +10 прохладно 1021.6 980.5
09 20.04 СЗ 5-10
{10}
20 км 8/3 600 м
[Sc Ac trans Ci fib]
+8.8 -8.5 28 +6 +9 прохладно 1020.9 980.1
12 20.04 С 3
{10}
50 км 8/3 600 м
[Sc Ac trans Ci fib]
+8.9 -8.5 28 +7 +9 прохладно 1021.2 980.4
15 20.04 С 2 20 км 8/0
[Ci fib]
+4.6 -6.5 44 +3 +3 прохладно 1023.1 981.6 +9.2
18 20.04 штиль 0 10 км 8/0
[Ci fib]
-1.1 -6.3 68 -2 -2 холодно 1025.5 983.1
21 20.04 штиль 0 10 км 10/0
[Ac trans Cs]
-3.1 -6.1 80 -4 -4 холодно 1026.1 983.4
00 21.04 Ю 1 10 км 8/6 600 м
[Sc Ci fib]
-3.6 -5.8 85 -6 -6 холодно 1025.9 983.1
03 21.04 Ю 1 10 км 8/4 600 м
[Cb cap Ac trans Ci fib]
+0.4 -4.7 69 -1 -0 прохладно 1025.7 983.5 -4.5
06 21.04 СЗ 3 50 км 8/6 600 м
[Cb cap Ci fib]
+6.8 -5.6 41 +5 +8 по сезону 1023.9 982.7
09 21.04 З 1 50 км 9/9 600 м
[Cb cap]
+8.4 -6.3 35 +8 +10 по сезону 1023.1 982.2
12 21.04 СЗ 4 50 км 9/8 600 м
[Cb cap Ac trans]
+7.9 -6.1 36 +5 +6 прохладно 1022.8 981.8
15 21.04 СЗ 2 20 км 9/8 600 м
[Sc Ac trans]
+6.3 -6.2 40 +5 +5 по сезону 1022.7 981.5 +9.3
18 21.04 штиль 0 10 км 3/3 600 м
[Sc]
-1.1 -6.2 68 -2 -2 холодно 1024.6 982.2
21 21.04 ЮВ 1 10 км 10/8 600 м
[Sc Ac As]
+0.1 -5.2 67 -2 -2 прохладно 1024.2 982.0
00 22.04 штиль 0 10 км 10/4 600 м
[Sc Ac trans Ci fib]
-0.8 -4.6 75 -2 -2 по сезону 1024.2 981.9
03 22.04 ЮЗ 1 20 км 10/0
[Ac As]
+2.4 -4.4 61 +1 +2 по сезону 1023.8 982.0 -1.3

 

Местоположение метеостанции Миасс (Челябинская область, Россия): широта 55.00 долгота 60.08 высота над уровнем моря 338 м.

В архиве по умолчанию представлена погода в Миассе за последнюю неделю. Архивные данные за месяц целиком и за предыдущие месяцы, начиная с января 2011 года, Вы можете получить, выбрав интересующий диапазон дат из раскрывающегося списка и нажав кнопку "Ввод!".


*Определитесь, кто Вы:
робот инопланетянин человек

Внимание! Время в таблицах - всемирное. Для получения местного времени необходимо прибавить поправку, которая равна 5 ч.

Смотрите также архив погоды в соседних городах и на ближайших метеорологических станциях:

Погода в Златоусте (Челябинская область, Россия) (32 км)
Погода в Мирном (Челябинская область, Россия) (52 км)
Погода в Челябинске (Челябинская область, Россия) (79 км)
Погода в Аргаяше (Челябинская область, Россия) (80 км)
Погода в Учалах (Башкирия, Россия) (83 км)
Погода в Южноуральске (Челябинская область, Россия) (103 км)
Погода в Николаевке (Башкирия, Россия) (112 км)
Погода в Верхнем Уфалее (Челябинская область, Россия) (121 км)
Погода в Нязепетровске (Челябинская область, Россия) (121 км)
Погода в Катав-Ивановске (Челябинская область, Россия) (122 км)

Пояснения к столбцам:

Ветер - указаны скорость ветра в м/с - средняя за 10 мин, порывы в срок и между сроками (в фигурных скобках) и направление, откуда дует ветер: С - северный, СВ - северо-восточный, В - восточный, ЮВ - юго-восточный, Ю - южный, ЮЗ - юго-западный, З - западный, СЗ - северо-западный.
Видимость - горизонтальная дальность видимости в метрах или километрах. При видимости от 1 до 10 км при отсутствии осадков обычно наблюдается дымка, при ухудшении видимости до 1 км и менее - туман. В сухую погоду видимость может ухудшаться дымом, пылью или мглою.
Явления - указаны атмосферные явления, наблюдавшиеся в срок или в последний час перед сроком; фигурными скобками обозначены явления, наблюдавшиеся между сроками (за 1-3 часа до срока); квадратными скобками обозначены град или гололедные отложения с указанием их диаметра в мм.
Облачность - указаны через наклонную черту общая и нижняя облачность в баллах и высота нижней границы облаков в метрах; квадратными скобками обозначены формы облаков: Ci - перистые, Cs - перисто-слоистые, Cc - перисто-кучевые, Ac - высококучевые, As - высокослоистые, Sc - слоисто-кучевые, Ns - слоисто-дождевые, Cu - кучевые, Cb - кучево-дождевые. Подробнее классификацию облаков см. в Атласе облаков (PDF).
T - Температура воздуха - температура, измеренная на высоте 2 м над землей.
Td - Температура точки росы - температура, при понижении до которой содержащийся в воздухе водяной пар достигнет насыщения.
f - Относительная влажность воздуха - влажноcть воздуха, измеренная на высоте 2 м над землей.
Te - Эффективная температура - температура, которую ощущает одетый по сезону человек в тени. Характеристика душности погоды. При расчете учитывается влияние влажности воздуха и скорости ветра на теплоощущения человека.
Tes - Эффективная температура на солнце - температура, которую ощущает человек, с поправкой на солнечный нагрев. Характеристика знойности погоды. Зависит от высоты солнца над горизонтом, облачности и скорости ветра. Ночью, в пасмурную погоду, а также при ветре 12 м/с и более поправка равна нулю.
P - Атмосферное давление - приведенное к уровню моря атмосферное давление.
Po - Атмосферное давление - измеренное на уровне метеостанции атмосферное давление.
Tmin - Минимальная температура - минимум температуры воздуха на высоте 2 м над землей.
Tmax - Максимальная температура - максимум температуры воздуха на высоте 2 м над землей.
R - Количество осадков - Количество выпавших осадков за период времени, мм. При наведении курсора мыши на число - период времени, за который выпало указанное количество осадков.
R24 - Количество осадков - Количество выпавших осадков за 24 часа, мм.
S - Снежный покров - Высота снежного покрова, см. При наведении курсора мыши на число - состояние снежного покрова и степень покрытия местности в баллах.